User: anonymous   Login
Location: Erdweis
(48.5167°N, 15.3500°E)
Time: 03:31:36
(UTC+00:00)
Language:

Cosmos 2084 Rocket - Orbit

View from above orbital plane
View from above orbital plane
View from above satellite
View from above satellite

Ground track
Ground track

The orbit data is extracted from the following two-line orbital elements,

1 20666U 90055D   20332.86628229 +.00000289 +00000-0 +45047-4 0  9995
2 20666 062.7859 258.5865 0069632 010.0991 350.1482 14.92395821649684
Epoch (UTC): 27 November 2020 20:47:26
Eccentricity: 0.0069632
inclination: 62.7859°
perigee height: 542 km
apogee height: 639 km
right ascension of ascending node: 258.5865°
argument of perigee: 10.0991°
revolutions per day: 14.92395821
mean anomaly at epoch: 350.1482°
orbit number at epoch: 64968

The dashed part of the orbit path shows where the satellite is in the earth's shadow,  

DLR